Location: Prescott
(34.5400°N, 112.4680°W)
Time: 17:18:46
(UTC-07:00)

Amateur Radio Satellites - All Passes

Search period start: 26 May 2016 16:48
Search period end: 27 May 2016 16:48
Location: Prescott, 34.5400°N, 112.4680°W

Satellite Date Start Highest point End Downlink Frequencies (MHz)
Time Altitude Azimuth
KKS-1 26 May 16:54:09 16:58:07 33° 289° (WNW) 17:02:04 437.445
AO-85 26 May 16:54:54 16:55:58 11° 255° (WSW) 16:57:00 145.980
CUTE-I 26 May 16:55:21 16:58:49 18° 65° (ENE) 17:02:17 437.470
MOZHAYETS 4 26 May 17:00:46 17:05:05 39° 287° (WNW) 17:09:23
BRITE-PL 26 May 17:03:16 17:07:45 25° 68° (ENE) 17:12:19 437.365/2234.400
HORYU 2 26 May 17:15:27 17:19:18 29° 262° (W) 17:23:10 437.375
RS-15 26 May 17:23:19 17:34:34 86° 115° (ESE) 17:46:29 29.354- 29.394
LilacSat-2 26 May 17:24:12 17:27:14 23° 72° (ENE) 17:30:15 437.200
STARS 26 May 17:33:23 17:36:53 24° 290° (WNW) 17:40:23 437.465
GOMX 1 26 May 17:34:08 17:38:25 24° 68° (ENE) 17:42:38 467.674
NOAA 18 26 May 17:35:34 17:40:54 57° 73° (ENE) 17:46:15 137.9125
Cosmos 2504 26 May 17:43:57 17:51:07 87° 95° (E) 17:58:38 435.465 / 435.565
NOAA 15 26 May 17:45:42 17:51:00 85° 76° (ENE) 17:56:21 137.62
Cubesat XI-IV 26 May 17:46:34 17:51:45 57° 73° (ENE) 17:56:57 437.490
PCSat 26 May 17:50:52 17:53:39 14° 48° (NE) 17:56:25 145.827
YUBILEINY 26 May 17:57:30 18:04:00 23° 290° (WNW) 18:10:33 435.215
CUBESAT XI-V 26 May 18:22:52 18:27:25 48° 286° (WNW) 18:31:55 437.345
DOVE 4 26 May 18:28:00 18:32:49 37° 73° (ENE) 18:37:30 437.250
AUBIESAT-1 26 May 18:28:03 18:30:17 14° 65° (ENE) 18:32:26 437.475
M-CUBED/EXP-1 PRIME 26 May 18:32:45 18:35:55 21° 67° (ENE) 18:38:55 437.505
CUTE-I 26 May 18:33:18 18:38:25 50° 260° (W) 18:43:35 437.470
O/OREOS (USA 219) 26 May 18:38:25 18:41:19 17° 60° (ENE) 18:44:12 437.305
BRITE-PL 26 May 18:40:42 18:45:54 40° 263° (W) 18:51:14 437.365/2234.400
LilacSat-2 26 May 18:58:43 19:01:27 19° 265° (W) 19:04:10 437.200
HO-68 26 May 19:01:46 19:08:13 38° 66° (ENE) 19:14:40 435.675
CINEMA 3 26 May 19:07:24 19:11:24 27° 71° (ENE) 19:15:15 145.822/145.860
GOMX 1 26 May 19:11:02 19:16:10 40° 262° (W) 19:21:18 467.674
STRAND 1 26 May 19:14:56 19:19:45 39° 99° (E) 19:24:32 437.568
NOAA 18 26 May 19:18:46 19:21:51 15° 267° (W) 19:24:57 137.9125
CANX-2 26 May 19:23:25 19:27:19 39° 73° (ENE) 19:31:15 2200.000
SEEDS 26 May 19:28:40 19:32:11 27° 71° (ENE) 19:35:44 437.485
Cubesat XI-IV 26 May 19:29:16 19:32:07 15° 267° (W) 19:34:59 437.490
PCSat 26 May 19:32:14 19:37:41 80° 245° (WSW) 19:43:04 145.827
RS-15 26 May 19:39:09 19:48:37 28° 321° (NW) 19:58:32 29.354- 29.394
Cosmos 2504 26 May 19:42:27 19:45:34 13° 294° (WNW) 19:48:45 435.465 / 435.565
CUTE 1.7 + AOD 2 26 May 19:50:34 19:54:45 75° 75° (ENE) 19:58:57 437.475
Oscar 11 26 May 19:53:22 19:54:50 12° 66° (ENE) 19:56:18 145.826/435.025
GONETS M04 26 May 19:59:14 20:01:21 11° 77° (ENE) 20:03:28
AUBIESAT-1 26 May 20:00:29 20:04:29 40° 256° (WSW) 20:08:15 437.475
ISS 26 May 20:01:01 20:02:42 13° 127° (SE) 20:04:22 145.825
CUBEBUG 2 26 May 20:03:54 20:07:49 32° 73° (ENE) 20:11:39 437.445
ZACube-1 26 May 20:04:50 20:07:00 14° 68° (ENE) 20:09:08 437.345
DOVE 4 26 May 20:06:25 20:10:30 23° 265° (W) 20:14:30 437.250
M-CUBED/EXP-1 PRIME 26 May 20:06:33 20:10:18 28° 257° (WSW) 20:13:49 437.505
BEESAT 2 26 May 20:14:14 20:17:02 18° 52° (NE) 20:19:50 435.950
COMPASS 1 26 May 20:15:59 20:20:06 74° 76° (ENE) 20:24:15 437.405
O/OREOS (USA 219) 26 May 20:16:42 20:20:50 38° 256° (WSW) 20:24:57 437.305
AIST 1 26 May 20:18:08 20:21:20 20° 88° (E) 20:24:33
AAUSAT CUBESAT 2 26 May 20:19:35 20:23:38 64° 76° (ENE) 20:27:44 437.432
PRISM 26 May 20:28:36 20:32:31 38° 99° (E) 20:36:23 437.425
UWE-3 26 May 20:34:18 20:38:29 49° 75° (ENE) 20:42:35 435.000/436.395/437.385
FUNcube-1 26 May 20:41:33 20:45:25 35° 73° (ENE) 20:49:14 145.935
CINEMA 3 26 May 20:44:25 20:48:24 26° 264° (W) 20:52:17 145.822/145.860
HO-68 26 May 20:49:26 20:55:50 35° 262° (W) 21:02:17 435.675
BEESAT 3 26 May 20:50:05 20:54:04 84° 62° (ENE) 20:57:59 437.485
STRAND 1 26 May 20:54:48 20:58:37 21° 293° (WNW) 21:02:25 437.568
DELFI C3 26 May 20:58:24 21:01:48 29° 72° (ENE) 21:05:15 145.870
CANX-2 26 May 21:01:13 21:03:18 13° 267° (W) 21:05:25 2200.000
SEEDS 26 May 21:04:52 21:07:52 19° 265° (W) 21:10:52 437.485
Oscar 11 26 May 21:26:18 21:30:28 51° 260° (W) 21:34:40 145.826/435.025
PHONESAT 2.4 26 May 21:29:03 21:31:59 37° 149° (SSE) 21:34:55 2401.200-2431.200
ISS 26 May 21:35:42 21:38:49 43° 321° (NW) 21:41:58 145.825
ZACube-1 26 May 21:38:53 21:42:56 40° 261° (W) 21:46:54 437.345
CUBEBUG 2 26 May 21:41:25 21:44:27 18° 265° (W) 21:47:26 437.445
GONETS M04 26 May 21:47:49 21:56:36 77° 93° (E) 22:05:21
BEESAT 2 26 May 21:51:22 21:54:56 32° 247° (WSW) 21:58:29 435.950
ANTELSAT 26 May 21:52:45 21:55:24 16° 94° (E) 21:58:03 437.575/2403.000
AIST 1 26 May 21:55:00 21:58:43 27° 283° (WNW) 22:02:28
HUMSAT D 26 May 21:55:02 21:59:04 63° 75° (ENE) 22:03:06 437.325/437.525
DANDE 26 May 21:55:26 22:00:54 19° 65° (ENE) 22:06:04 436.750
RS-15 26 May 22:02:31 22:07:20 13° 356° (N) 22:12:13 29.354- 29.394
PRISM 26 May 22:05:11 22:07:27 14° 293° (WNW) 22:09:42 437.425
CUSAT 1 26 May 22:09:33 22:16:41 40° 73° (ENE) 22:22:38 437.405
UWE-3 26 May 22:13:51 22:15:09 11° 267° (W) 22:16:26 435.000/436.395/437.385
AIST 2 26 May 22:15:33 22:18:53 23° 53° (NE) 22:22:12 435.215
FUNcube-1 26 May 22:19:16 22:21:44 15° 266° (W) 22:24:12 145.935
Cosmos 2499 26 May 22:21:11 22:28:17 73° 93° (E) 22:35:53 435.465 / 435.565
AISAT 26 May 22:23:39 22:26:31 17° 67° (ENE) 22:29:22 437.250
DELFI C3 26 May 22:34:11 22:36:41 16° 266° (W) 22:39:12 145.870
UKube-1 26 May 22:36:58 22:39:22 15° 67° (ENE) 22:41:47 .
UNISAT 6 26 May 22:46:40 22:50:58 73° 102° (ESE) 22:55:20 437.425
QB50P2 26 May 22:47:18 22:48:12 11° 92° (E) 22:49:07 145.880/145.840
POLYITAN 1 26 May 22:49:35 22:50:39 11° 92° (E) 22:51:44 437.675
TIGRISAT 26 May 22:54:32 22:58:50 84° 100° (E) 23:03:12 435.000
ESTCUBE 1 26 May 22:56:29 23:00:53 57° 75° (ENE) 23:05:20 437.505/2401.250
NANOSAT C BR1 26 May 23:02:47 23:05:18 15° 94° (E) 23:07:47 145.865
PHONESAT 2.4 26 May 23:05:43 23:08:43 41° 344° (NNW) 23:11:43 2401.200-2431.200
CUBEBUG 1 26 May 23:17:31 23:21:54 68° 76° (ENE) 23:26:19 437.445
DX 1 26 May 23:19:52 23:24:10 59° 75° (ENE) 23:28:30 434.975-435.025
VELOX 1 26 May 23:22:09 23:26:36 76° 76° (ENE) 23:31:04 145.980
50 SAT 26 May 23:24:07 23:27:43 84° 259° (WSW) 23:31:23 437.505
ANTELSAT 26 May 23:28:14 23:32:11 36° 287° (WNW) 23:36:10 437.575/2403.000
DANDE 26 May 23:36:21 23:44:50 86° 264° (W) 23:52:16 436.750
DUCHIFAT 1 26 May 23:40:33 23:44:31 42° 99° (E) 23:48:28 145.980
GONETS M04 26 May 23:48:19 23:54:14 19° 292° (WNW) 00:00:11
SPROUT 26 May 23:48:33 23:52:46 55° 74° (ENE) 23:56:57 437.525
CUSAT 1 26 May 23:52:01 23:58:30 32° 274° (W) 00:04:02 437.405
AIST 2 26 May 23:53:49 23:57:18 27° 248° (WSW) 00:00:48 435.215
SO-50 26 May 23:55:40 00:00:25 53° 115° (ESE) 00:05:11 436.795
AISAT 26 May 23:58:30 00:02:39 38° 261° (W) 00:06:50 437.250
BUGSAT 1 27 May 00:02:27 00:06:06 33° 98° (E) 00:09:43 437.445
UKube-1 27 May 00:10:56 00:15:02 41° 261° (W) 00:19:09 .
TISAT 1 27 May 00:16:19 00:19:59 29° 71° (ENE) 00:23:39 437.305
POPSAT HIP 1 27 May 00:17:38 00:21:45 57° 285° (WNW) 00:25:51 437.405
RS-15 27 May 00:17:40 00:26:50 23° 34° (NNE) 00:36:01 29.354- 29.394
Cosmos 2499 27 May 00:17:53 00:22:15 17° 293° (WNW) 00:26:48 435.465 / 435.565
QB50P1 27 May 00:18:08 00:22:15 55° 285° (WNW) 00:26:20 145.935-145.965
QB50P2 27 May 00:20:11 00:24:15 49° 286° (WNW) 00:28:18 145.880/145.840
POLYITAN 1 27 May 00:22:39 00:26:41 48° 286° (WNW) 00:30:43 437.675
ESTCUBE 1 27 May 00:37:01 00:38:00 11° 268° (W) 00:39:00 437.505/2401.250
NANOSAT C BR1 27 May 00:37:19 00:41:05 34° 288° (WNW) 00:44:52 145.865
SWISSCUBE 27 May 00:38:12 00:39:18 11° 63° (ENE) 00:40:24 437.505
PHONESAT 2.4 27 May 00:43:11 00:45:53 26° 1° (N) 00:48:34 2401.200-2431.200
ITUPSAT 1 27 May 00:43:48 00:45:01 11° 63° (ENE) 00:46:14 437.325
BEESAT 27 May 01:05:27 01:08:51 20° 67° (ENE) 01:12:16 436.000
JAS-2 27 May 01:14:56 01:22:20 70° 101° (ESE) 01:28:51 435.910
DUCHIFAT 1 27 May 01:17:52 01:19:49 13° 293° (WNW) 01:21:45 145.980
DANDE 27 May 01:22:07 01:26:16 15° 281° (W) 01:30:15 436.750
Oscar 19 27 May 01:24:32 01:29:18 37° 98° (E) 01:34:02 437.125/150
SO-50 27 May 01:37:49 01:41:12 18° 311° (NW) 01:44:35 436.795
BUGSAT 1 27 May 01:38:50 01:41:11 15° 292° (WNW) 01:43:31 437.445
Gurwin Techsat 1B 27 May 01:41:44 01:45:48 22° 95° (E) 01:49:52 435.225
TISAT 1 27 May 01:52:39 01:55:37 19° 265° (W) 01:58:36 437.305
ITAMSAT 1 27 May 02:06:23 02:08:49 13° 92° (E) 02:11:15 435.822/435.867
SWISSCUBE 27 May 02:11:44 02:16:27 69° 258° (WSW) 02:21:13 437.505
YUBILEINY 27 May 02:13:23 02:20:29 27° 72° (ENE) 02:27:32 435.215
KKS-1 27 May 02:14:52 02:16:22 12° 65° (ENE) 02:17:53 437.445
ITUPSAT 1 27 May 02:17:30 02:22:13 69° 258° (WSW) 02:26:59 437.325
PHONESAT 2.4 27 May 02:19:59 02:23:01 47° 17° (NNE) 02:26:03 2401.200-2431.200
MOZHAYETS 4 27 May 02:25:34 02:26:33 11° 65° (ENE) 02:27:32
RS-15 27 May 02:29:30 02:41:54 74° 59° (ENE) 02:54:07 29.354- 29.394
BEESAT 27 May 02:42:01 02:46:21 35° 261° (W) 02:50:43 436.000
AO-7 27 May 02:43:56 02:48:38 16° 93° (E) 02:53:18 29.400- 29.500
STARS 27 May 02:51:25 02:53:54 15° 67° (ENE) 02:56:23 437.465
JAS-2 27 May 03:01:26 03:06:25 20° 300° (WNW) 03:11:06 435.910
Cosmos 2491 27 May 03:03:33 03:11:06 33° 85° (E) 03:18:37 435.465 / 435.565
Oscar 19 27 May 03:04:27 03:08:21 22° 293° (WNW) 03:12:13 437.125/150
Gurwin Techsat 1B 27 May 03:20:56 03:25:49 38° 289° (WNW) 03:30:41 435.225
Cosmos 2504 27 May 03:40:05 03:47:06 28° 73° (ENE) 03:54:18 435.465 / 435.565
ITAMSAT 1 27 May 03:43:28 03:48:37 61° 286° (WNW) 03:53:45 435.822/435.867
KKS-1 27 May 03:48:01 03:52:24 57° 259° (W) 03:56:49 437.445
PHONESAT 2.4 27 May 03:56:54 03:59:42 30° 212° (SSW) 04:02:28 2401.200-2431.200
MOZHAYETS 4 27 May 03:58:37 04:03:07 64° 259° (W) 04:07:39
ISS 27 May 04:06:06 04:09:10 37° 38° (NE) 04:12:13 145.825
YUBILEINY 27 May 04:09:09 04:17:39 58° 269° (W) 04:26:11 435.215
STARS 27 May 04:25:42 04:29:52 42° 261° (W) 04:34:04 437.465
AO-7 27 May 04:33:46 04:42:10 87° 289° (WNW) 04:50:33 29.400- 29.500
RS-15 27 May 04:43:33 04:53:14 28° 258° (WSW) 05:02:51 29.354- 29.394
Cosmos 2491 27 May 04:59:10 05:07:33 47° 282° (WNW) 05:15:59 435.465 / 435.565
HORYU 2 27 May 05:09:04 05:13:29 67° 102° (ESE) 05:17:53 437.375
AO-85 27 May 05:21:09 05:26:21 47° 114° (ESE) 05:31:32 145.980
CUBESAT XI-V 27 May 05:22:05 05:26:44 77° 258° (WSW) 05:31:26 437.345
JUGNU 27 May 05:23:22 05:25:43 12° 166° (SSE) 05:28:03 437.505
Cosmos 2504 27 May 05:32:30 05:40:46 58° 269° (W) 05:49:22 435.465 / 435.565
ISS 27 May 05:43:20 05:45:22 16° 232° (SW) 05:47:23 145.825
NOAA 18 27 May 06:01:27 06:06:20 32° 98° (E) 06:11:11 137.9125
NOAA 15 27 May 06:04:41 06:09:42 42° 99° (E) 06:14:40 137.62
Cubesat XI-IV 27 May 06:07:42 06:12:23 30° 97° (E) 06:17:03 437.490
STRAND 1 27 May 06:27:24 06:32:06 39° 71° (ENE) 06:36:49 437.568
AO-7 27 May 06:28:49 06:33:45 17° 306° (NW) 06:38:43 29.400- 29.500
LilacSat-2 27 May 06:34:17 06:38:00 56° 100° (E) 06:41:43 437.200
BRITE-PL 27 May 06:49:38 06:54:44 81° 282° (WNW) 06:59:21 437.365/2234.400
CUTE-I 27 May 06:53:38 06:59:01 88° 105° (ESE) 07:04:23 437.470
AO-85 27 May 07:02:43 07:07:04 24° 309° (NW) 07:11:21 145.980
JUGNU 27 May 07:09:59 07:14:00 19° 176° (S) 07:18:02 437.505
PRISM 27 May 07:15:28 07:18:17 18° 68° (ENE) 07:21:08 437.425
SRMSAT 27 May 07:16:49 07:18:09 11° 164° (SSE) 07:19:29 437.500
GOMX 1 27 May 07:16:58 07:21:38 89° 102° (ESE) 07:25:58 467.674
CUTE 1.7 + AOD 2 27 May 07:40:04 07:42:51 17° 94° (E) 07:45:37 437.475
NOAA 18 27 May 07:42:14 07:46:50 28° 292° (WNW) 07:51:26 137.9125
AUBIESAT-1 27 May 07:44:09 07:45:37 12° 100° (E) 07:47:05 437.475
NOAA 15 27 May 07:45:18 07:49:08 21° 294° (WNW) 07:52:58 137.62
Cubesat XI-IV 27 May 07:47:46 07:52:19 29° 291° (WNW) 07:56:52 437.490
M-CUBED/EXP-1 PRIME 27 May 07:49:35 07:51:58 19° 101° (ESE) 07:54:22 437.505
GONETS M04 27 May 08:03:15 08:10:45 31° 73° (ENE) 08:18:11
COMPASS 1 27 May 08:03:36 08:06:09 15° 94° (E) 08:08:40 437.405
AIST 1 27 May 08:04:56 08:09:10 49° 81° (E) 08:13:21
AAUSAT CUBESAT 2 27 May 08:07:04 08:09:04 13° 93° (E) 08:11:04 437.432
STRAND 1 27 May 08:07:41 08:11:21 20° 265° (W) 08:15:03 437.568
DOVE 4 27 May 08:08:19 08:12:33 51° 286° (WNW) 08:16:36 437.250
Cosmos 2499 27 May 08:16:26 08:23:00 23° 71° (ENE) 08:29:37 435.465 / 435.565
HO-68 27 May 08:20:01 08:27:02 55° 102° (ESE) 08:34:02 435.675
PCSat 27 May 08:28:25 08:32:30 22° 106° (ESE) 08:36:36 145.827
UWE-3 27 May 08:29:10 08:30:51 12° 93° (E) 08:32:32 435.000/436.395/437.385
SO-50 27 May 08:31:26 08:34:50 19° 49° (NE) 08:38:08 436.795
CUTE-I 27 May 08:37:34 08:38:15 10° 299° (WNW) 08:38:57 437.470
CINEMA 3 27 May 08:41:52 08:46:01 79° 283° (WNW) 08:50:10 145.822/145.860
O/OREOS (USA 219) 27 May 08:46:06 08:50:16 35° 104° (ESE) 08:54:25 437.305
CANX-2 27 May 08:47:13 08:51:27 61° 284° (WNW) 08:55:41 2200.000
PRISM 27 May 08:49:43 08:53:21 30° 262° (W) 08:57:01 437.425
SEEDS 27 May 08:50:43 08:54:59 89° 100° (E) 08:59:15 437.485
JUGNU 27 May 08:58:25 09:02:20 18° 186° (S) 09:06:15 437.505
SRMSAT 27 May 09:02:43 09:06:35 18° 174° (S) 09:10:25 437.500
CUTE 1.7 + AOD 2 27 May 09:14:54 09:18:44 33° 287° (WNW) 09:22:34 437.475
Oscar 11 27 May 09:17:00 09:21:00 35° 98° (E) 09:24:59 145.826/435.025
AUBIESAT-1 27 May 09:17:25 09:20:09 25° 292° (WNW) 09:22:55 437.475
M-CUBED/EXP-1 PRIME 27 May 09:24:20 09:26:26 16° 294° (WNW) 09:28:31 437.505
ZACube-1 27 May 09:30:16 09:34:18 44° 99° (E) 09:38:24 437.345
CUBEBUG 2 27 May 09:33:59 09:38:07 67° 284° (WNW) 09:42:19 437.445
COMPASS 1 27 May 09:37:57 09:41:46 34° 287° (WNW) 09:45:35 437.405
AAUSAT CUBESAT 2 27 May 09:40:45 09:44:42 40° 286° (WNW) 09:48:37 437.432
UNISAT 6 27 May 09:42:06 09:46:12 40° 74° (ENE) 09:50:15 437.425
HUMSAT D 27 May 09:43:28 09:45:30 13° 93° (E) 09:47:31 437.325/437.525
AIST 1 27 May 09:45:41 09:46:13 10° 275° (W) 09:46:45
TIGRISAT 27 May 09:49:41 09:53:52 46° 74° (ENE) 09:58:00 435.000
GONETS M04 27 May 09:59:31 10:07:44 49° 271° (W) 10:15:56
UWE-3 27 May 10:03:31 10:07:28 43° 286° (WNW) 10:11:30 435.000/436.395/437.385
Cosmos 2499 27 May 10:08:04 10:16:40 69° 267° (W) 10:25:28 435.465 / 435.565
FUNcube-1 27 May 10:08:29 10:12:38 63° 284° (WNW) 10:16:51 145.935
HO-68 27 May 10:08:40 10:14:15 25° 297° (WNW) 10:19:51 435.675
PCSat 27 May 10:10:28 10:15:34 42° 301° (WNW) 10:20:42 145.827
SO-50 27 May 10:11:07 10:15:29 42° 246° (WSW) 10:19:42 436.795
DELFI C3 27 May 10:13:32 10:17:35 81° 101° (E) 10:21:37 145.870
ANTELSAT 27 May 10:23:03 10:27:24 65° 259° (WSW) 10:31:42 437.575/2403.000
O/OREOS (USA 219) 27 May 10:26:33 10:29:45 19° 299° (WNW) 10:32:57 437.305
DUCHIFAT 1 27 May 10:29:38 10:32:46 20° 70° (ENE) 10:35:54 145.980
BEESAT 3 27 May 10:37:40 10:41:10 32° 113° (ESE) 10:44:42 437.485
JUGNU 27 May 10:49:01 10:50:37 11° 196° (SSW) 10:52:13 437.505
BUGSAT 1 27 May 10:49:43 10:52:18 16° 68° (ENE) 10:54:51 437.445
SRMSAT 27 May 10:51:04 10:55:03 19° 184° (S) 10:59:02 437.500
ESTCUBE 1 27 May 10:53:48 10:56:34 16° 94° (E) 10:59:20 437.505/2401.250
Oscar 11 27 May 10:54:03 10:56:49 17° 292° (WNW) 10:59:34 145.826/435.025
50 SAT 27 May 10:59:23 11:00:12 11° 93° (E) 11:01:00 437.505
DANDE 27 May 11:00:49 11:03:45 15° 79° (ENE) 11:07:03 436.750
CUSAT 1 27 May 11:06:10 11:11:49 45° 90° (E) 11:18:47 437.405
POPSAT HIP 1 27 May 11:06:12 11:10:24 63° 75° (ENE) 11:14:36 437.405
QB50P1 27 May 11:06:37 11:10:49 65° 76° (ENE) 11:15:02 145.935-145.965
ZACube-1 27 May 11:08:21 11:10:12 13° 293° (WNW) 11:12:02 437.345
QB50P2 27 May 11:08:48 11:13:01 74° 76° (ENE) 11:17:16 145.880/145.840
CUBEBUG 1 27 May 11:10:59 11:13:41 16° 94° (E) 11:16:23 437.445
POLYITAN 1 27 May 11:11:15 11:15:29 76° 76° (ENE) 11:19:43 437.675
DX 1 27 May 11:13:21 11:15:27 13° 93° (E) 11:17:31 434.975-435.025
VELOX 1 27 May 11:16:51 11:19:56 18° 95° (E) 11:22:59 145.980
HUMSAT D 27 May 11:17:21 11:21:15 39° 286° (WNW) 11:25:09 437.325/437.525
UNISAT 6 27 May 11:20:41 11:23:02 14° 266° (W) 11:25:22 437.425
JAS-2 27 May 11:22:48 11:28:28 25° 62° (ENE) 11:34:24 435.910
NANOSAT C BR1 27 May 11:25:12 11:29:26 77° 258° (WSW) 11:33:39 145.865
TIGRISAT 27 May 11:28:59 11:30:44 12° 267° (W) 11:32:30 435.000
BEESAT 2 27 May 11:39:24 11:43:21 81° 299° (WNW) 11:47:21 435.950
SPROUT 27 May 11:40:06 11:41:48 12° 93° (E) 11:43:27 437.525
AISAT 27 May 11:51:54 11:56:12 51° 100° (E) 12:00:28 437.250
UKube-1 27 May 12:01:24 12:05:28 40° 99° (E) 12:09:31 .
DUCHIFAT 1 27 May 12:04:42 12:08:17 27° 263° (W) 12:11:51 145.980
AIST 2 27 May 12:12:56 12:13:20 10° 107° (ESE) 12:13:43 435.215
BEESAT 3 27 May 12:16:10 12:18:55 18° 308° (NW) 12:21:41 437.485
BUGSAT 1 27 May 12:23:30 12:27:21 35° 261° (W) 12:31:13 437.445
ESTCUBE 1 27 May 12:29:15 12:33:29 39° 287° (WNW) 12:37:42 437.505/2401.250
50 SAT 27 May 12:30:35 12:34:04 38° 286° (WNW) 12:37:32 437.505
Oscar 19 27 May 12:37:50 12:42:37 39° 71° (ENE) 12:47:25 437.125/150
DANDE 27 May 12:40:18 12:45:21 62° 282° (WNW) 12:52:06 436.750
SRMSAT 27 May 12:41:08 12:43:30 12° 194° (SSW) 12:45:51 437.500
CUBEBUG 1 27 May 12:46:04 12:50:04 35° 288° (WNW) 12:54:01 437.445
DX 1 27 May 12:47:41 12:51:48 43° 287° (WNW) 12:55:53 434.975-435.025
CUSAT 1 27 May 12:48:59 12:54:13 28° 291° (WNW) 13:00:24 437.405
VELOX 1 27 May 12:52:30 12:56:25 32° 289° (WNW) 13:00:19 145.980
Gurwin Techsat 1B 27 May 12:59:26 13:03:45 26° 68° (ENE) 13:08:03 435.225
JAS-2 27 May 13:05:39 13:12:43 63° 260° (W) 13:20:27 435.910
SPROUT 27 May 13:13:53 13:17:56 44° 286° (WNW) 13:21:57 437.525
Cosmos 2491 27 May 13:20:56 13:23:51 12° 63° (ENE) 13:26:45 435.465 / 435.565
ITAMSAT 1 27 May 13:21:07 13:24:02 15° 64° (ENE) 13:26:57 435.822/435.867
AISAT 27 May 13:30:22 13:32:12 12° 295° (WNW) 13:34:01 437.250
TISAT 1 27 May 13:38:33 13:42:45 87° 107° (ESE) 13:46:53 437.305
UKube-1 27 May 13:38:43 13:41:09 15° 293° (WNW) 13:43:34 .
AO-7 27 May 13:39:53 13:45:05 19° 55° (NE) 13:50:17 29.400- 29.500
AIST 2 27 May 13:47:15 13:51:17 55° 301° (WNW) 13:55:21 435.215
AO-85 27 May 13:58:12 14:00:58 15° 46° (NE) 14:03:35 145.980
SWISSCUBE 27 May 14:15:32 14:20:02 39° 99° (E) 14:24:30 437.505
Oscar 19 27 May 14:18:08 14:22:00 21° 265° (W) 14:25:53 437.125/150
ITUPSAT 1 27 May 14:21:35 14:26:07 40° 99° (E) 14:30:36 437.325
Gurwin Techsat 1B 27 May 14:38:43 14:43:29 33° 262° (W) 14:48:16 435.225
BEESAT 27 May 14:45:03 14:49:51 76° 103° (ESE) 14:54:37 436.000
RS-15 27 May 14:47:37 14:48:43 10° 95° (E) 14:49:49 29.354- 29.394
ITAMSAT 1 27 May 14:57:55 15:02:59 56° 259° (W) 15:08:05 435.822/435.867
YUBILEINY 27 May 15:09:57 15:17:27 34° 86° (E) 15:24:58 435.215
Cosmos 2491 27 May 15:13:25 15:22:12 75° 83° (E) 15:30:53 435.465 / 435.565
AO-7 27 May 15:28:28 15:36:45 88° 252° (WSW) 15:45:07 29.400- 29.500
AO-85 27 May 15:37:26 15:41:48 50° 246° (WSW) 15:45:48 145.980
KKS-1 27 May 15:42:38 15:46:40 34° 98° (E) 15:50:40 437.445
SWISSCUBE 27 May 15:54:12 15:57:30 19° 293° (WNW) 16:00:47 437.505
MOZHAYETS 4 27 May 15:57:10 16:01:30 38° 98° (E) 16:05:48
ITUPSAT 1 27 May 16:00:20 16:03:37 18° 293° (WNW) 16:06:52 437.325
HORYU 2 27 May 16:03:40 16:07:46 38° 72° (ENE) 16:11:51 437.375
Cosmos 2504 27 May 16:16:27 16:21:24 20° 82° (E) 16:26:29 435.465 / 435.565
STARS 27 May 16:18:24 16:22:34 43° 99° (E) 16:26:43 437.465
CUTE-I 27 May 16:36:32 16:37:57 11° 62° (ENE) 16:39:22 437.470
